Stations météo

Publicité
New York City, ny, Etats-Unis (2074728): Température de l'air & dewpoint: 13.01.2018 00:00:00 - 19.01.2018 00:00:00 (EST)New York City, ny, Etats-Unis (2074728): Vitesse du vent & gusts: 13.01.2018 00:00:00 - 19.01.2018 00:00:00 (EST)New York City, ny, Etats-Unis (2074728): Direction du vent: 13.01.2018 00:00:00 - 19.01.2018 00:00:00 (EST)New York City, ny, Etats-Unis (2074728): reduced air pressure: 13.01.2018 00:00:00 - 19.01.2018 00:00:00 (EST)New York City, ny, Etats-Unis (2074728): visibility: 13.01.2018 00:00:00 - 19.01.2018 00:00:00 (EST)New York City, ny, Etats-Unis (2074728): Quantités de précipitations: 13.01.2018 00:00:00 - 19.01.2018 00:00:00 (EST)
Date & Time tt [°C] td [°C] ff [km/h] ff [knt] fx [km/h] fx [knt] dd ppp [hPa] vv [km] rr [mm]
19.01.2018 00:00:00 -3,3 -11,1 9 5 - - WNW 1018,0 16 -
18.01.2018 23:00:00 -3,3 -11,1 8 4 - - - 1018,2 16 -
18.01.2018 22:00:00 -2,8 -11,1 11 6 - - WNW 1018,5 16 -
18.01.2018 21:00:00 -2,2 -11,1 16 9 - - NW 1017,7 16 -
18.01.2018 20:00:00 -1,7 -10,6 8 4 - - - 1016,9 16 -
18.01.2018 19:00:00 -1,1 -10,6 9 5 - - - 1016,5 16 -
18.01.2018 18:00:00 -0,6 -11,7 13 7 - - NW 1015,4 16 -
18.01.2018 17:00:00 -0,6 -11,7 16 9 - - WNW 1013,9 16 -
18.01.2018 16:00:00 0,0 -12,2 16 9 - - NW 1013,5 16 -
18.01.2018 15:00:00 -0,6 -13,3 11 6 - - - 1013,2 16 -
18.01.2018 14:00:00 -0,6 -13,3 13 7 - - WNW 1013,4 16 0,0
18.01.2018 13:00:00 -1,1 -13,9 15 8 - - NW 1014,3 16 0,0
18.01.2018 12:00:00 -1,7 -13,9 11 6 - - - 1015,4 16 0,0
18.01.2018 11:00:00 -3,3 -13,9 13 7 - - W 1017,1 16 -
18.01.2018 10:00:00 -4,4 -14,4 13 7 - - NW 1017,6 16 -
18.01.2018 09:00:00 -6,1 -13,3 18 10 - - WNW 1016,9 16 -
18.01.2018 08:00:00 -6,1 -13,3 13 7 - - W 1018,2 16 -
18.01.2018 07:00:00 -6,7 -13,3 13 7 - - WNW 1018,3 16 -
18.01.2018 06:00:00 -7,2 -12,8 - - - - - 1016,4 16 -
18.01.2018 05:00:00 -7,2 -12,8 8 4 - - WNW 1017,4 16 -
18.01.2018 04:00:00 -7,2 -12,8 15 8 - - NW 1017,8 16 -
18.01.2018 03:00:00 -6,7 -12,8 15 8 - - WNW 1019,5 16 -
18.01.2018 02:00:00 -6,1 -12,8 9 5 - - WNW 1020,2 16 -
18.01.2018 01:00:00 -6,1 -12,8 13 7 - - WNW 1020,2 16 -
18.01.2018 00:00:00 -5,6 -12,8 15 8 - - NW 1021,9 16 -
17.01.2018 23:00:00 -5,0 -12,2 5 3 - - - 1021,5 16 -
17.01.2018 22:00:00 -5,0 -12,2 18 10 - - WNW 1022,0 16 -
17.01.2018 21:00:00 -4,4 -10,6 13 7 - - WNW 1021,9 16 -
17.01.2018 20:00:00 -3,9 -10,0 18 10 - - NW 1021,7 16 -
17.01.2018 19:00:00 -2,8 -8,9 18 10 - - WNW 1021,6 16 -
17.01.2018 18:00:00 -2,2 -7,2 15 8 - - WNW 1021,8 16 -
17.01.2018 17:00:00 -1,7 -6,1 9 5 - - WNW 1021,5 16 -
17.01.2018 16:00:00 -0,6 -4,4 11 6 - - W 1022,0 16 0,0
17.01.2018 15:00:00 0,6 -2,2 13 7 - - WNW 1021,6 4,0 0,0
17.01.2018 14:00:00 0,6 -1,1 8 4 - - - 1021,9 15 0,0
17.01.2018 13:00:00 0,6 -0,6 5 3 - - - 1022,8 2,8 0,0
17.01.2018 12:00:00 0,6 -0,6 11 6 - - NW 1023,5 4,8 0,0
17.01.2018 11:00:00 0,6 -0,6 11 6 - - WNW 1024,4 1,2 0,3
17.01.2018 10:00:00 0,6 0,0 8 4 - - - 1024,6 1,2 -
17.01.2018 09:00:00 0,6 0,0 0 0 - - N 1024,6 2,0 -
17.01.2018 08:00:00 0,6 0,0 0 0 - - N 1024,5 3,2 -
17.01.2018 07:00:00 1,1 0,6 0 0 - - N 1024,3 4,8 -
17.01.2018 06:00:00 1,7 1,1 9 5 - - NNW 1024,3 4,8 -
17.01.2018 05:00:00 2,2 1,7 5 3 - - NNE 1024,2 8 -
17.01.2018 04:00:00 1,7 1,1 13 7 - - ENE 1024,5 8 -
17.01.2018 03:00:00 2,2 0,6 9 5 - - NE 1025,3 8 -
17.01.2018 02:00:00 2,2 0,0 9 5 - - NE 1025,8 16 -
17.01.2018 01:00:00 2,2 -0,6 5 3 - - N 1026,2 16 -
17.01.2018 00:00:00 1,7 -1,1 8 4 - - NNE 1026,9 16 -
16.01.2018 23:00:00 1,1 -1,1 5 3 - - NE 1027,8 16 -
16.01.2018 22:00:00 1,1 -1,7 5 3 - - NE 1028,5 16 -
16.01.2018 21:00:00 1,1 -1,7 8 4 - - ENE 1028,8 16 -
16.01.2018 20:00:00 1,1 -2,2 9 5 - - NE 1029,2 16 -
16.01.2018 19:00:00 1,1 -2,2 0 0 - - N 1029,6 16 -
16.01.2018 18:00:00 0,6 -2,8 8 4 - - ENE 1029,5 16 -
16.01.2018 17:00:00 0,6 -2,8 8 4 - - ENE 1029,5 16 -
16.01.2018 16:00:00 1,7 -2,8 5 3 - - - 1029,8 16 -
16.01.2018 15:00:00 1,7 -3,3 8 4 - - NE 1030,0 16 -
16.01.2018 14:00:00 1,7 -3,3 5 3 - - NE 1030,2 16 -
16.01.2018 13:00:00 1,7 -3,3 8 4 - - - 1030,5 16 -
16.01.2018 12:00:00 1,1 -3,3 0 0 - - N 1031,5 16 -
16.01.2018 11:00:00 0,6 -3,9 8 4 - - NNE 1032,4 16 -
16.01.2018 10:00:00 0,0 -3,9 5 3 - - ENE 1032,7 16 -
16.01.2018 09:00:00 -1,7 -4,4 5 3 - - - 1032,7 16 -
16.01.2018 08:00:00 -2,2 -5,0 8 4 - - ESE 1032,9 16 -
16.01.2018 07:00:00 -2,8 -5,6 9 5 - - E 1032,8 16 -
16.01.2018 06:00:00 -3,3 -6,7 9 5 - - E 1032,5 16 -
16.01.2018 05:00:00 -3,9 -6,7 5 3 - - NNE 1032,5 16 -
16.01.2018 04:00:00 -3,3 -6,1 8 4 - - NE 1032,8 16 -
16.01.2018 03:00:00 -3,9 -6,7 5 3 - - - 1032,7 16 -
16.01.2018 02:00:00 -3,9 -7,8 0 0 - - N 1032,0 16 -
16.01.2018 01:00:00 -3,9 -8,3 8 4 - - ENE 1032,2 16 -
16.01.2018 00:00:00 -3,9 -8,3 8 4 - - - 1032,2 16 -
15.01.2018 23:00:00 -3,9 -7,8 8 4 - - NE 1032,8 16 -
15.01.2018 22:00:00 -3,9 -8,3 13 7 - - ENE 1033,0 16 -
15.01.2018 21:00:00 -3,9 -7,8 9 5 - - NE 1033,2 16 -
15.01.2018 20:00:00 -3,3 -7,8 13 7 - - E 1033,9 16 -
15.01.2018 19:00:00 -3,3 -7,8 8 4 - - - 1033,7 16 -
15.01.2018 18:00:00 -2,8 -8,3 15 8 - - ENE 1033,7 16 0,0
15.01.2018 17:00:00 -2,2 -8,3 15 8 - - E 1033,6 15 0,0
15.01.2018 16:00:00 -1,7 -8,3 15 8 - - E 1033,2 15 0,0
15.01.2018 15:00:00 -1,1 -8,9 9 5 - - - 1033,6 16 0,0
15.01.2018 14:00:00 -2,2 -9,4 15 8 - - E 1034,2 15 0,0
15.01.2018 13:00:00 -1,7 -8,9 18 10 - - NE 1035,2 15 0,0
15.01.2018 12:00:00 -3,3 -9,4 13 7 - - ENE 1036,1 15 0,0
15.01.2018 11:00:00 -3,9 -10,0 15 8 - - E 1037,7 15 0,0
15.01.2018 10:00:00 -5,0 -11,1 15 8 - - NE 1038,2 16 -
15.01.2018 09:00:00 -6,7 -13,3 13 7 - - ENE 1038,6 16 -
15.01.2018 08:00:00 -7,8 -13,9 15 8 - - NE 1038,1 16 -
15.01.2018 07:00:00 -7,8 -14,4 13 7 - - ENE 1038,5 16 -
15.01.2018 06:00:00 -7,8 -14,4 11 6 - - - 1038,4 16 -
15.01.2018 05:00:00 -8,3 -15,6 13 7 - - NE 1038,0 16 -
15.01.2018 04:00:00 -8,9 -16,7 16 9 - - NE 1038,3 16 -
15.01.2018 03:00:00 -8,9 -16,7 8 4 - - - 1038,8 16 -
15.01.2018 02:00:00 -8,9 -17,2 16 9 - - NNE 1038,5 16 -
15.01.2018 01:00:00 -8,9 -17,2 15 8 - - NNE 1038,1 16 -
15.01.2018 00:00:00 -8,9 -17,8 18 10 - - NE 1038,3 16 -
14.01.2018 23:00:00 -8,3 -17,8 11 6 - - - 1039,4 16 -
14.01.2018 22:00:00 -8,3 -17,8 13 7 - - NE 1038,5 16 -
14.01.2018 21:00:00 -7,8 -18,9 16 9 - - NE 1038,1 16 -
14.01.2018 20:00:00 -7,2 -18,9 13 7 - - NE 1038,6 16 -
14.01.2018 19:00:00 -6,7 -17,8 11 6 - - - 1038,0 16 -
14.01.2018 18:00:00 -6,1 -18,3 21 11 - - NE 1037,5 16 -
14.01.2018 17:00:00 -5,6 -19,4 13 7 - - NE 1037,2 16 -
14.01.2018 16:00:00 -5,0 -20,6 9 5 - - - 1036,6 16 -
14.01.2018 15:00:00 -4,4 -20,0 13 7 - - NE 1036,2 16 -
14.01.2018 14:00:00 -4,4 -19,4 13 7 - - N 1035,8 16 -
14.01.2018 13:00:00 -5,0 -19,4 21 11 - - NE 1036,1 16 -
14.01.2018 12:00:00 -6,1 -20,0 15 8 - - NNE 1037,2 16 -
14.01.2018 11:00:00 -7,2 -18,9 - - - - - 1037,4 16 -
14.01.2018 10:00:00 -8,3 -17,8 5 3 - - - 1038,1 16 -
14.01.2018 09:00:00 -9,4 -17,8 11 6 - - - 1036,5 16 -
14.01.2018 08:00:00 -9,4 -17,2 16 9 - - NNW 1035,2 16 -
14.01.2018 07:00:00 -9,4 -16,7 9 5 - - - 1034,3 16 -
14.01.2018 06:00:00 -9,4 -16,7 8 4 - - - 1033,3 16 -
14.01.2018 05:00:00 -8,9 -16,1 13 7 - - WNW 1032,3 16 -
14.01.2018 04:00:00 -8,9 -16,1 8 4 - - - 1032,3 16 -
14.01.2018 03:00:00 -8,9 -16,7 15 8 - - WNW 1031,8 16 -
14.01.2018 02:00:00 -8,3 -16,1 9 5 - - - 1030,8 16 -
14.01.2018 01:00:00 -8,3 -16,7 13 7 - - WNW 1029,6 16 -
14.01.2018 00:00:00 -7,2 -16,7 18 10 - - WNW 1029,1 16 -
13.01.2018 23:00:00 -6,7 -16,7 18 10 - - WNW 1028,0 16 -
13.01.2018 22:00:00 -6,1 -16,1 5 3 - - - 1026,9 16 -
13.01.2018 21:00:00 -5,6 -14,4 9 5 - - - 1025,6 16 -
13.01.2018 20:00:00 -5,0 -13,3 16 9 - - NW 1024,6 16 0,0
13.01.2018 19:00:00 -4,4 -12,8 21 11 - - WNW 1023,1 15 0,0
13.01.2018 18:00:00 -3,9 -11,7 15 8 - - NW 1021,5 15 0,0
13.01.2018 17:00:00 -2,2 -11,1 24 13 - - WNW 1019,7 16 -
13.01.2018 16:00:00 -0,6 -9,4 13 7 - - WNW 1018,0 16 -
13.01.2018 15:00:00 0,6 -8,9 16 9 - - WNW 1016,3 16 -
13.01.2018 14:00:00 0,6 -8,9 22 12 - - NW 1014,5 16 -
13.01.2018 13:00:00 0,0 -8,9 18 10 - - WNW 1012,7 16 -
13.01.2018 12:00:00 -1,1 -8,9 21 11 - - WNW 1011,6 16 -
13.01.2018 11:00:00 -1,7 -9,4 18 10 50 27 NW 1010,9 16 -
13.01.2018 10:00:00 -2,2 -8,3 22 12 48 26 NW 1009,3 16 -
13.01.2018 09:00:00 -1,1 -5,6 22 12 - - W 1006,8 16 -
13.01.2018 08:00:00 1,7 -1,7 21 11 - - WNW 1003,4 16 -
13.01.2018 07:00:00 6,7 4,4 11 6 - - W 999,0 16 -
13.01.2018 06:00:00 10,6 10,0 11 6 - - - 994,5 16 -
13.01.2018 05:00:00 12,2 11,7 9 5 - - - 993,1 11 0,0
13.01.2018 04:00:00 12,2 11,7 16 9 - - S 993,4 10 1,0
13.01.2018 03:00:00 12,2 12,2 9 5 - - SE 995,9 4,8 0,3
13.01.2018 02:00:00 13,3 12,8 9 5 - - SSE 997,9 11 0,0
13.01.2018 01:00:00 13,9 13,3 9 5 - - - 999,1 15 0,0
13.01.2018 00:00:00 13,9 13,3 11 6 - - S 999,9 11 0,0

tt = Température de l'air
td = dewpoint
ff = Vitesse du vent
fx = gusts
dd = Direction du vent
ppp = reduced air pressure
vv = visibility
rr = Quantités de précipitations

stations d'obs. à proximité